STRAND-1

Last updated on Sun Sep 20 2026 00:03:12 GMT+0000 (Coordinated Universal Time)

1 39090U 13009E 26262.25265127 .00000169 00000+0 71290-4 0 9990 2 39090 98.3971 80.2080 0007772 315.7982 44.2583 14.37208267710572
UTC large
Height (km)
Speed (km/s)
/
Latitude / Longitude
Inclination (degrees)
Orbital Period (minutes)
Azimuth
Elevation
Range (km)
Doppler Factor

Next 0 passes for location: London (51.5072 / 0.1276)

No passes found over London.
STRAND-1